sat.trackr.live / text

‹ back to catalog

STARLINK-31471

NORAD 59568 · 2024-076E

PAYLOAD ACTIVE UNKNOWN

§ Identity

Operator
Country
US
Launch date
2024-04-23
Launch site
AFETR
Launch vehicle
Mass (kg)
RCS (m²)

Purposes: comms

External: N2YO · Heavens-Above · Gunter

§ Orbital elements

Epoch: 2026-05-25T02:55:53.818752Z

Period
94.27 min
Inclination
43.0015°
Eccentricity
0.0000847
Mean motion
15.27579197 rev/d
Perigee alt
482.5 km
Apogee alt
483.6 km
Semi-major
6,861.2 km
B*
1.5894e-5
RAAN
297.2094°
Arg perigee
288.6526°
Mean anomaly
71.4234°
Rev number
11,810

§ Raw data

STARLINK-314711 59568U 24076E   26145.12215068  .00000175  00000+0  15894-4 0  99982 59568  43.0015 297.2094 0000847 288.6526  71.4234 15.27579197118102

JSON: /api/v1/satellites/59568 · /tle

For live sub-satellite position, see the globe view (requires WebGL).

§ Visibility from observer

Set your observer location to see the next 7 days of passes ≥ 10°. The values pass through the URL so the page stays shareable.

No JS? Fill the form by hand. The geolocation button needs JavaScript.